Flag for Malaysia Weather past 2 weeks in Kuching, Malaysia

Now
82 °F

Broken clouds.


Feels Like: 92 °F
Forecast: 75 / 90 °F
Wind: 3 mph from Southeast

Location: Kuching Airport


UV Index: 7 (High)

Visibility: N/A


Pressure: 29.89 "Hg

Humidity: 89%

Dew point: 79 °F

Location of KuchingLocation

Historic Weather in Kuching

°F

Kuching temperature yesterday

Maximum temperature yesterday: 93 °F (at 1:00 PM)
Minimum temperature yesterday: 73 °F (at 6:00 AM)
Average temperature yesterday: 81 °F

Past Weeks' High & Low Weather Summary

 TemperatureHumidityPressure
High93 °F (Apr 14, 3:00 PM)100% (Apr 11, 7:00 AM)29.92 "Hg (Apr 11, 7:00 AM)
Low73 °F (Apr 11, 5:00 AM)49% (Apr 17, 2:00 PM)29.71 "Hg (Apr 16, 4:30 PM)
Average80 °F85%29.82 "Hg
* Reported Apr 10 11:00 AM — Apr 25 11:30 AM, Kuching, Weather by CustomWeather, © 2014

Note: Actual official high and low records may vary slightly from our data, if they occured in-between our weather recording intervals... More about our weather records

Advertising

Historic Weather Conditions — Data for Previous 24 hours

 ConditionsComfort  
Time TempWeatherWind HumidityBarometerVisibility
11:30 AM
Apr 25
82 °FBroken clouds.3 mph89%29.89 "HgN/A
11:00 AM81 °FBroken clouds.5 mph89%29.89 "HgN/A
10:30 AM81 °FBroken clouds.3 mph89%29.89 "HgN/A
10:00 AM81 °FBroken clouds.5 mph89%29.89 "HgN/A
9:30 AM79 °FLight rain. Broken clouds.5 mph94%29.89 "Hg5 mi
9:00 AM77 °FLight rain. Broken clouds.6 mph100%29.89 "Hg5 mi
8:30 AM77 °FLight rain. Broken clouds.5 mph100%29.89 "HgN/A
8:00 AM77 °FLight rain. Broken clouds.3 mph94%29.86 "HgN/A
7:30 AM77 °FThunderstorms. Broken clouds.3 mph94%29.83 "HgN/A
7:00 AM77 °FThunderstorms. Broken clouds.2 mph94%29.83 "HgN/A
6:30 AM77 °FPartly cloudy.3 mph94%29.80 "HgN/A
6:00 AM79 °FPartly cloudy.2 mph89%29.80 "HgN/A
5:30 AM79 °FPartly cloudy.3 mph89%29.77 "HgN/A
5:00 AM79 °FPartly cloudy.5 mph89%29.77 "HgN/A
4:30 AM79 °FPartly cloudy.5 mph89%29.77 "HgN/A
4:00 AM79 °FPartly cloudy.3 mph89%29.77 "HgN/A
3:30 AM79 °FPartly cloudy.3 mph89%29.77 "HgN/A
3:00 AM79 °FPartly cloudy.5 mph89%29.77 "HgN/A
2:30 AM79 °FPartly cloudy.5 mph89%29.77 "HgN/A
2:00 AM79 °FPartly cloudy.6 mph89%29.77 "HgN/A
1:30 AM79 °FPartly cloudy.2 mph89%29.77 "HgN/A
1:00 AM79 °FPartly cloudy.2 mph89%29.77 "HgN/A
12:30 AM79 °FPartly cloudy.3 mph89%29.80 "HgN/A
12:00 AM79 °FPartly cloudy.3 mph89%29.80 "HgN/A
11:30 PM
Apr 24
79 °FPartly cloudy.3 mph89%29.83 "HgN/A
11:00 PM79 °FPartly cloudy.5 mph89%29.83 "HgN/A
10:30 PM79 °FPartly cloudy.7 mph89%29.83 "HgN/A
10:00 PM79 °FPartly cloudy.5 mph89%29.83 "HgN/A
9:30 PM79 °FPassing clouds.5 mph89%29.80 "HgN/A
9:00 PM79 °FPassing clouds.5 mph89%29.80 "HgN/A
8:30 PM79 °FPassing clouds.5 mph89%29.80 "HgN/A
8:00 PM81 °FPassing clouds.7 mph84%29.77 "HgN/A
7:30 PM81 °FPartly cloudy.5 mph84%29.77 "HgN/A
7:00 PM81 °FPartly cloudy.3 mph84%29.74 "HgN/A
6:30 PM82 °FBroken clouds.3 mph84%29.74 "HgN/A
6:00 PM81 °FLight rain. Broken clouds.3 mph89%29.71 "HgN/A
5:30 PM79 °FThunderstorms. Broken clouds.1 mph89%29.71 "HgN/A
5:00 PM79 °FThunderstorms. Broken clouds.7 mph89%29.71 "HgN/A
4:30 PM82 °FThunderstorms. Broken clouds.15 mph74%29.71 "Hg4 mi
4:00 PM90 °FScattered clouds.7 mph67%29.71 "HgN/A
3:30 PM90 °FScattered clouds.6 mph67%29.71 "HgN/A
3:00 PM91 °FScattered clouds.8 mph67%29.71 "HgN/A
2:30 PM91 °FBroken clouds.7 mph63%29.71 "HgN/A
2:00 PM93 °FPartly sunny.3 mph53%29.74 "HgN/A
1:30 PM93 °FPartly sunny.2 mph56%29.74 "HgN/A
1:00 PM93 °FBroken clouds.3 mph56%29.77 "HgN/A
12:30 PM91 °FBroken clouds.2 mph59%29.77 "HgN/A
12:00 PM90 °FScattered clouds.5 mph59%29.80 "HgN/A
Weather by CustomWeather, © 2014

See weather overview